Simultaneous Nadir Overpasses (SNOs) Predictions

Prediction of SNOs between AQUA and NPP Satellite Orbit:

Table of predicted SNOs for the next 14.0 days since TLE Epoch: 4/30/2022
Index Date (AQUA) Time (AQUA) Lat,Lon (AQUA) SZA (AQUA ) Date (NPP) Time (NPP) Lat,Lon (NPP) SZA (NPP ) Distance(km) Time Diff (sec)
1 05/01/2022 02:58:24 77.45, 20.19 80.46 05/01/2022 02:58:01 77.44, 20.09 80.50 2.81 23
2 05/01/2022 03:47:37 -78.09,-169.36 100.36 05/01/2022 03:48:31 -78.08,-169.45 100.39 2.03 54
3 05/03/2022 18:25:12 -77.24, -32.33 100.07 05/03/2022 18:24:15 -77.24, -32.36 100.02 0.94 57
4 05/03/2022 19:14:23 77.88, 138.00 79.13 05/03/2022 19:14:44 77.87, 137.92 79.13 2.25 21
5 05/06/2022 10:41:11 -77.59, 85.09 101.27 05/06/2022 10:40:59 -77.59, 85.00 101.24 2.38 12
6 05/06/2022 11:30:17 78.43,-103.36 77.65 05/06/2022 11:31:22 78.44,-103.24 77.57 2.80 65
7 05/09/2022 02:07:54 77.43, 32.77 78.22 05/09/2022 02:07:10 77.43, 32.76 78.25 0.28 44
8 05/09/2022 02:57:06 -78.12,-156.55 102.67 05/09/2022 02:57:39 -78.12,-156.53 102.70 0.66 33
9 05/11/2022 17:35:48 -73.86, -29.58 98.37 05/11/2022 17:34:34 -73.98, -30.20 98.24 22.77 74
10 05/11/2022 18:23:49 77.93, 150.91 76.90 05/11/2022 18:23:51 77.93, 150.94 76.89 0.81 2



Historial Predications of SNOs between AQUA and NPP
